Regional Weather Roundup
Issued by NWS

Home | Current Version | Previous Version | Text Only | Print | Product List | Glossary On
Versions: 1 2 3 4 5 6 7 8 9 10 11 12 13 14 15 16 17 18 19 20 21 22 23 24 25 26 27 28 29 30 31 32 33 34 35 36 37 38 39 40 41 42 43 44 45 46 47 48 49 50
000
ASUS43 KLSX 260907
RWRMO

WEATHER SUMMARY FOR MISSOURI
NATIONAL WEATHER SERVICE SPRINGFIELD MO
300 AM CST FRI DEC 26 2014

NOTE: "FAIR" INDICATES FEW OR NO CLOUDS BELOW 12,000 FEET WITH NO
       SIGNIFICANT WEATHER AND/OR OBSTRUCTIONS TO VISIBILITY.
       CURRENT SKY AND/OR WEATHER CONDITIONS ARE NOT AVAILABLE FOR
       CHILLICOTHE AND FARMINGTON.

MOZ001>031-035>038-043-044-053-054-261000-
...NORTHERN AND WESTERN MISSOURI...

CITY           SKY/WX    TMP DP  RH WIND       PRES   REMARKS
KANSAS CTY INT MOCLDY    45  31  58 S14       29.83R
KANSAS C DTWN  MOCLDY    48  31  51 S10       29.84R
LEE`S SUMMIT   CLOUDY    44  31  60 S7        29.86R
ST JOSEPH      PTCLDY    38  30  73 S7        29.83R
CHILLICOTHE      N/A     39  30  70 SE5       29.87R
KIRKSVILLE     CLEAR     32  29  88 SE7       29.89R WCI  26

$$
MOZ066>068-077>081-088>096-101>105-261000-
...SOUTHWEST MISSOURI...

CITY           SKY/WX    TMP DP  RH WIND       PRES   REMARKS
SPRINGFIELD    PTCLDY    43  32  65 S12       29.95R
JOPLIN         MOCLDY    48  34  58 S18G28    29.92R

$$
MOZ032>034-039>042-045>050-055>058-069>072-261000-
...CENTRAL MISSOURI...

CITY           SKY/WX    TMP DP  RH WIND       PRES   REMARKS
COLUMBIA       CLOUDY    44  33  65 S15       29.96R
JEFFERSON CITY MOCLDY    42  32  67 SE7       29.98R
ROLLA          MOCLDY    42  34  73 S14       29.98R
SEDALIA        MOCLDY    46  32  58 S14       29.92R
WHITEMAN AFB   CLOUDY    45  33  62 S15       29.89R
WARRENSBURG    CLOUDY    43  32  65 S7        29.89R
OSAGE BEACH    PTCLDY    43  32  65 S10       29.96S

$$
MOZ051-052-059>065-261000-
...EAST CENTRAL MISSOURI...

CITY           SKY/WX    TMP DP  RH WIND       PRES   REMARKS
ST LOUIS INTL  PTCLDY    43  35  73 SE7       30.06R
SPIRIT OF STL  PTCLDY    43  35  73 S5        30.04R
ST CHARLES     CLEAR     35  33  92 E10       30.05R WCI  27

$$
MOZ072>076-082>087-097>100-106>115-261000-
...SOUTH CENTRAL AND SOUTHEAST MISSOURI...

CITY           SKY/WX    TMP DP  RH WIND       PRES   REMARKS
CAPE GIRARDEAU CLEAR     40  35  83 S9        30.15R
POPLAR BLUFF   CLEAR     39  32  76 S5        30.12R
WEST PLAINS    PTCLDY    38  33  82 S6        30.05R

$$


USA.gov is the U.S. government's official web portal to all federal, state and local government web resources and services.